Probability
1 1 1 0 0 0 0 0 0 0 0 0 0 0 0 0 0 0 0 0 1 1 1 1 1 1 1 0 0 0 0 0 0 0 0 0 0 0 0 0 0 0 0
0 0 0 0 0 0 0 0 0 0 0 0 0 0 0 0 0 0 0 0 1 2 2 2 2 2 1 0 0 0 0 0 0 0 0 0 0 0 0 0 0 0 0
0 0 0 0 0 0 0 0 0 0 0 0 0 0 0 0 0 0 0 0 1 1 1 1 1 1 1 0 0 0 0 0 0 0 0 0 0 0 0 0 0 0 0
1 0 0 0 0 0 0 0 0 0 0 0 0 0 0 0 0 0 0 0 0 0 0 0 0 0 0 0 0 0 0 0 0 0 0 0 0 0 0 0 0 0 0
2 1 0 0 0 0 0 0 0 0 0 0 0 0 0 0 0 0 0 0 0 0 0 0 0 0 1 1 1 0 0 0 0 0 0 0 0 0 0 0 0 0 0
2 1 0 0 0 0 0 0 0 0 0 0 0 0 0 0 0 0 0 0 0 0 0 0 0 0 1 2 2 1 1 1 1 0 1 1 2 1 1 0 0 0 0
2 2 2 1 0 0 0 0 0 0 0 0 0 0 0 0 0 0 0 0 0 0 0 0 0 0 1 2 2 2 3 3 2 1 1 2 2 2 1 0 0 0 0
3 3 3 2 1 1 1 0 0 0 0 0 0 0 0 0 0 0 0 0 0 0 0 0 1 0 0 1 1 2 3 4 4 3 3 3 2 1 0 0 0 0 0
4 3 3 3 3 2 2 1 0 0 0 0 0 0 0 0 0 0 0 0 0 0 0 0 0 0 0 0 0 1 2 3 4 4 3 3 2 1 1 0 0 0 0
4 4 3 3 3 3 3 2 1 0 0 0 0 0 0 0 0 0 0 0 0 0 0 0 0 0 0 0 0 0 1 1 3 4 4 4 3 3 2 1 0 0 0
3 3 3 3 3 3 3 3 2 1 0 0 0 0 0 0 0 0 0 0 0 0 0 0 0 0 0 0 0 0 0 0 1 3 4 4 3 3 3 2 1 1 0
2 3 3 3 4 4 4 4 3 1 1 0 0 0 0 0 0 0 0 0 0 0 0 0 0 0 0 0 0 0 0 0 0 1 2 3 2 2 2 2 2 2 1
2 3 3 4 5 5 6 5 4 3 3 1 1 0 0 0 0 0 0 0 0 0 0 0 0 0 0 0 0 0 0 0 0 0 0 1 1 0 1 1 2 2 1
3 3 3 4 5 6 6 6 6 7 5 3 2 1 0 0 0 0 0 0 0 0 0 0 0 0 0 0 0 0 0 0 0 0 0 0 0 0 0 0 1 1 0
4 4 4 4 5 5 5 6 8 8 6 3 2 1 0 0 0 0 0 0 0 0 0 0 0 0 0 0 0 0 0 0 0 0 0 0 0 0 0 0 0 0 0
5 5 5 6 6 6 6 8 8 7 5 3 2 1 0 0 0 0 0 0 0 0 0 0 0 0 0 0 0 0 0 0 0 0 0 0 0 0 0 0 0 0 0
5 5 5 6 6 7 9 9 8 6 5 3 2 1 0 0 0 0 0 0 0 0 0 0 0 0 0 0 0 0 0 0 0 0 0 0 0 0 0 0 0 0 0
5 5 5 5 5 7 10 11 8 6 5 2 1 0 0 0 0 0 0 0 0 1 1 1 1 0 0 0 0 0 0 0 0 0 0 0 0 0 0 0 0 0 0
7 6 6 6 6 7 10 11 9 6 4 1 0 0 0 0 0 0 0 1 2 2 2 2 2 1 0 0 0 0 0 0 0 0 0 0 0 0 0 0 0 0 0
7 7 8 8 7 7 8 9 9 6 4 2 1 1 1 1 1 0 1 2 3 3 3 3 3 2 1 0 0 0 0 0 0 0 0 0 0 0 0 0 0 0 0
8 8 8 8 8 7 8 9 9 6 5 4 3 2 2 2 2 1 1 3 4 3 3 3 3 2 1 0 0 0 0 0 0 0 0 0 0 0 0 0 0 0 0
9 9 9 9 9 8 8 9 9 8 6 5 4 4 3 3 3 3 3 3 3 3 3 2 1 1 0 0 0 0 0 0 0 0 0 0 0 0 0 0 0 0 0
12 11 10 10 10 9 9 8 8 8 7 7 6 5 3 2 3 3 3 3 3 2 1 1 0 0 0 0 0 0 0 0 0 0 0 0 0 0 0 0 0 0 0
12 11 10 10 10 9 8 7 6 7 7 7 6 6 5 4 3 3 3 2 2 1 0 0 0 0 0 0 0 0 1 1 1 0 0 0 0 0 0 0 0 0 0
10 9 9 9 9 8 7 6 6 7 7 6 5 5 6 5 4 2 1 1 1 0 1 1 0 0 0 0 0 1 2 2 2 1 0 0 0 0 0 0 0 0 0
8 8 8 9 8 7 6 6 6 7 7 5 4 4 5 5 4 1 0 0 0 1 2 2 1 0 0 0 0 1 2 3 2 1 0 0 0 0 0 0 0 0 0
Wind_Speed
3 3 2 2 2 2 2 2 1 2 2 2 1 3 4 4 4 4 3 11 12 11 12 12 11 11 10 10 9 8 9 9 9 8 8 8 8 8 8 8 8 8 7
3 3 2 2 2 2 2 2 2 1 1 0 0 2 3 4 5 4 4 7 12 11 11 11 11 11 10 10 10 10 9 9 8 8 8 8 8 8 9 9 9 9 8
3 3 2 1 1 1 1 1 1 0 0 0 1 1 2 3 4 5 4 3 4 9 10 10 10 10 11 11 11 10 10 9 8 8 8 7 7 8 9 9 10 9 9
3 3 2 2 2 1 1 1 0 0 0 0 1 1 1 2 3 4 4 4 3 3 6 8 8 9 9 9 10 10 10 8 8 8 8 8 8 7 7 7 8 8 8
3 3 2 2 1 1 1 1 1 1 1 1 1 1 0 1 2 3 4 4 4 3 3 5 7 7 7 8 8 9 9 9 8 8 9 9 9 8 7 7 7 7 7
3 3 2 2 2 1 1 1 1 1 1 1 1 0 1 0 1 1 3 3 4 4 3 3 3 4 6 6 7 8 8 9 9 8 8 8 9 8 8 8 7 7 6
3 3 2 1 1 1 2 1 1 0 1 1 1 2 2 1 0 1 1 2 2 3 3 2 2 2 2 4 5 5 6 6 7 7 6 7 7 6 6 6 6 6 6
3 3 3 2 2 1 1 1 1 1 1 1 2 1 1 3 2 1 0 1 1 2 3 3 3 2 2 1 1 3 4 5 5 6 6 6 6 6 6 6 6 6 6
3 3 3 3 3 3 2 2 2 2 1 1 2 3 2 2 1 2 1 1 1 1 1 2 2 2 3 2 1 3 4 4 5 5 4 4 4 4 5 6 6 6 6
2 3 3 3 3 2 2 3 2 2 2 2 1 1 2 3 2 0 2 1 1 2 1 1 1 1 1 1 1 2 4 4 4 5 4 4 4 4 3 3 4 4 5
1 2 3 3 3 2 3 2 2 2 2 2 2 1 1 1 2 2 1 1 1 2 1 1 1 1 0 0 1 1 2 2 2 3 3 3 3 3 3 2 2 2 2
1 2 2 3 3 3 3 3 2 2 2 2 1 1 2 2 2 2 2 1 1 0 1 1 1 1 1 1 2 4 4 4 3 3 2 2 2 1 1 1 1 1 2
1 2 2 2 2 2 2 2 2 1 1 2 2 1 1 1 1 2 3 2 1 0 1 2 1 1 1 1 2 5 6 6 6 6 6 5 4 4 4 4 4 4 4
2 2 2 1 1 1 2 2 1 1 1 1 1 1 1 1 2 2 3 3 2 1 1 1 1 2 1 1 3 4 4 7 7 7 7 7 7 6 6 6 6 6 6
1 1 2 2 1 1 1 1 1 1 1 1 1 1 1 0 1 1 2 4 4 3 1 0 0 1 1 2 3 3 3 7 9 9 8 8 8 7 8 8 7 7 7
1 2 2 2 1 1 1 1 1 1 1 0 0 1 0 0 1 1 1 1 2 4 2 1 1 0 1 2 4 3 4 9 9 9 9 9 9 9 9 9 9 8 8
2 2 2 2 2 1 1 1 1 1 1 1 0 1 1 1 1 1 2 2 2 3 4 1 1 1 2 2 2 3 3 3 4 8 9 9 9 9 9 9 9 9 8
2 2 3 3 2 2 2 2 1 1 1 1 1 1 1 1 2 1 2 2 2 3 4 3 1 1 1 2 3 3 3 4 3 7 8 9 9 9 9 9 9 9 9
3 3 4 3 3 2 2 2 1 1 1 1 1 1 1 2 2 1 2 2 2 3 3 4 2 1 1 2 3 3 3 2 3 5 7 7 7 8 8 8 8 8 9
3 3 3 3 3 3 3 2 2 2 3 2 2 1 1 2 1 2 2 2 3 4 4 4 3 2 1 1 2 2 2 2 2 3 4 4 5 6 6 6 7 7 7
4 3 4 3 3 2 2 3 3 3 3 3 3 3 3 3 3 2 2 3 4 4 3 3 3 2 1 2 2 2 2 1 2 2 2 2 2 2 2 3 4 5 6
3 4 4 3 3 2 3 4 4 3 3 3 3 3 3 4 6 6 6 5 5 5 5 4 3 3 2 2 2 2 3 2 1 0 2 1 1 1 1 0 2 4 4
3 4 3 4 3 3 5 5 5 4 3 3 3 2 3 4 4 4 6 7 6 5 6 5 5 4 3 3 3 3 2 2 2 2 2 1 1 1 1 0 2 2 2
3 3 3 3 3 4 5 5 6 4 4 3 3 3 3 3 3 4 5 5 4 3 3 3 3 2 3 3 4 4 4 3 2 1 2 1 1 1 1 1 1 2 1
4 3 3 4 4 3 4 6 6 4 4 4 4 4 4 3 4 6 6 5 5 3 5 6 5 4 4 4 4 4 3 3 1 1 1 2 1 0 1 1 2 3 2
4 4 4 3 3 2 4 6 5 3 4 3 3 4 5 5 6 6 5 4 4 2 2 4 4 4 3 3 3 3 4 4 2 1 1 2 1 1 0 2 1 1 2
Wind_Direction
167 173 183 192 206 213 207 217 247 263 259 259 194 165 164 155 161 166 174 181 182 183 183 184 185 188 190 192 193 192 193 193 192 193 195 198 200 201 203 201 201 203 203
162 164 174 191 210 211 204 206 215 231 253 270 146 164 163 160 170 172 178 185 188 189 191 191 192 195 198 199 200 200 200 201 199 198 203 207 210 210 212 213 212 211 210
162 157 158 169 209 221 215 198 225 279 273 277 238 206 180 169 172 177 178 182 188 194 195 197 200 202 203 204 206 208 208 209 208 207 210 214 216 215 218 218 219 217 215
167 156 158 186 202 183 166 163 129 4 327 301 285 262 206 186 178 178 175 176 179 188 198 200 202 207 211 212 212 213 212 209 212 215 215 216 216 212 217 219 219 218 218
179 165 178 199 194 160 171 215 151 173 204 253 256 251 230 189 184 175 174 181 183 184 189 199 203 209 210 211 212 213 209 207 210 216 220 220 218 215 215 216 217 221 223
183 172 190 207 175 144 168 205 194 194 197 221 265 353 7 64 144 158 180 181 185 188 188 200 210 222 219 218 216 215 215 213 213 219 223 223 222 218 218 221 222 224 226
187 179 189 191 174 166 191 199 189 198 240 133 67 21 2 5 76 141 159 149 161 172 163 183 189 195 231 237 229 219 217 215 215 220 222 219 216 212 210 214 218 221 227
195 191 185 190 191 183 206 208 172 158 251 136 140 117 360 350 355 348 117 137 158 159 165 180 185 193 212 231 237 222 226 222 217 222 222 219 214 211 212 218 221 222 228
198 194 189 186 187 181 205 216 194 170 210 257 171 153 157 218 292 347 20 71 90 124 166 181 176 204 210 216 228 237 227 227 220 219 214 211 212 214 221 228 226 225 231
195 197 197 193 194 195 204 216 204 189 178 228 249 198 182 168 166 274 352 17 73 88 105 114 128 182 216 207 205 192 204 207 213 218 214 208 204 198 208 233 238 239 238
222 211 201 196 198 204 210 213 202 198 190 202 211 203 191 185 167 158 230 313 40 50 74 95 92 86 122 195 206 144 166 173 198 206 206 207 203 198 210 225 240 255 261
239 231 209 203 204 206 209 212 207 199 198 190 184 182 180 173 179 162 186 205 159 32 51 62 64 62 70 84 99 88 96 101 103 108 109 100 91 92 99 82 37 342 321
234 232 212 200 202 202 197 189 184 191 181 171 184 197 188 194 165 155 155 174 155 162 51 39 26 41 68 58 70 86 92 92 88 84 81 75 69 67 71 67 49 32 24
219 218 186 177 190 195 195 175 179 198 162 181 204 196 176 198 162 165 164 159 146 93 57 20 21 28 45 71 82 89 88 92 90 85 79 75 73 70 66 62 55 48 43
178 135 136 136 140 143 163 152 157 186 148 170 208 189 169 196 154 169 166 164 158 156 137 271 35 17 64 76 84 85 85 87 88 84 82 80 78 75 71 67 62 57 55
103 95 95 100 97 95 99 109 126 154 124 146 148 112 118 136 104 118 143 139 137 148 153 180 159 155 91 93 94 83 87 91 85 86 86 83 80 76 73 71 69 67 62
107 100 109 108 97 90 85 93 87 95 120 112 67 107 133 109 104 104 113 109 113 128 138 142 107 110 78 85 79 76 81 76 79 86 86 85 82 78 75 73 71 69 67
105 109 100 96 91 80 68 73 72 56 79 73 65 90 82 98 96 100 115 123 128 129 138 141 119 93 86 108 97 95 88 87 85 87 88 89 87 83 78 75 72 70 69
98 92 94 94 90 82 80 76 82 72 80 65 70 100 105 100 94 109 121 127 130 124 120 131 129 110 92 109 97 85 79 69 91 97 93 88 90 90 87 84 81 78 73
103 95 92 89 83 78 70 69 82 80 71 59 58 70 95 112 141 140 135 138 127 118 117 125 128 127 122 133 115 112 84 44 63 75 75 84 87 90 93 95 93 88 81
102 99 94 82 73 75 63 66 80 87 82 70 53 52 70 81 88 122 135 144 136 131 132 131 138 130 139 151 158 159 124 104 41 56 64 56 62 54 64 92 101 99 91
90 87 87 82 69 60 68 85 95 91 91 89 76 56 63 63 70 76 89 103 128 144 149 145 146 156 173 176 151 142 132 124 104 315 96 50 63 38 319 10 122 119 112
104 92 83 80 72 60 71 85 93 100 90 84 85 76 71 62 60 72 76 77 82 102 133 152 153 170 170 177 152 144 148 145 158 186 120 103 334 318 288 231 155 159 156
112 101 87 83 78 63 75 91 95 91 80 73 76 86 90 72 71 85 84 73 65 67 99 124 144 165 165 168 167 164 158 124 78 86 121 139 227 266 285 295 216 203 211
106 99 98 90 81 55 69 90 96 87 79 67 64 71 91 88 79 91 90 83 68 48 65 85 97 98 103 115 135 122 122 120 110 263 176 137 181 212 299 285 258 235 235
120 108 93 89 96 80 71 95 103 103 90 76 60 58 75 91 89 93 102 104 96 69 64 58 54 49 61 75 103 145 156 154 149 199 212 146 158 128 314 292 268 254 248